CST,Max TemperatureF,Mean TemperatureF,Min TemperatureF,Max Dew PointF,MeanDew PointF,Min DewpointF,Max Humidity, Mean Humidity, Min Humidity, Max Sea Level PressureIn, Mean Sea Level PressureIn, Min Sea Level PressureIn, Max VisibilityMiles, Mean VisibilityMiles, Min VisibilityMiles, Max Wind SpeedMPH, Mean Wind SpeedMPH, Max Gust SpeedMPH,PrecipitationIn, CloudCover, Events, WindDirDegrees
2012-11-1,48,38,28,32,24,19,69,50,32,30.02,29.95,29.90,10,10,10,18,6,21,0.00,3,,333
2012-11-2,42,32,23,25,22,16,75,61,42,30.14,30.09,30.02,10,10,7,10,2,,0.00,2,,61
2012-11-3,46,42,37,34,25,21,81,53,37,30.21,30.17,30.13,10,10,7,4,0,,0.00,7,Rain,291
2012-11-4,48,42,37,36,34,32,87,72,62,30.21,30.16,30.10,10,8,5,9,3,,0.04,6,Rain,104
2012-11-5,48,45,42,37,35,34,81,70,58,30.17,30.11,29.95,7,6,2,15,5,21,0.01,5,Rain,151
2012-11-6,48,44,41,37,35,32,81,72,62,29.96,29.85,29.78,10,8,2,22,15,32,0.10,8,Rain,272
2012-11-7,46,42,37,34,31,28,81,67,53,30.11,30.06,29.96,10,10,10,9,4,,0.00,6,,233
2012-11-8,59,47,35,36,32,28,87,62,39,30.06,29.97,29.91,10,10,2,20,11,26,0.00,0,,163
2012-11-9,55,44,33,37,34,28,81,66,47,30.00,29.94,29.86,10,6,3,18,7,24,0.00,2,,83
2012-11-10,77,62,48,54,47,37,77,60,34,29.85,29.62,29.50,10,7,2,23,18,30,0.18,2,Rain-Thunderstorm,147
2012-11-11,60,42,24,52,27,10,82,69,54,29.96,29.78,29.55,10,8,2,21,15,26,0.05,8,Rain-Snow,273
2012-11-12,28,24,21,16,13,10,80,62,51,30.28,30.07,29.95,10,9,1,21,15,28,0.00,5,Snow,256
2012-11-13,44,32,19,25,18,10,74,54,34,30.35,30.30,30.26,10,10,10,16,9,22,0.00,1,,174
2012-11-14,53,45,37,30,28,25,70,53,33,30.26,30.21,30.16,10,10,10,16,10,22,0.00,3,,172
2012-11-15,55,42,30,30,26,16,70,52,35,30.43,30.24,30.13,10,10,10,15,10,18,0.00,1,,251
2012-11-16,48,32,17,28,16,9,73,50,22,30.45,30.40,30.31,10,10,10,15,2,,0.00,0,,146
2012-11-17,57,48,39,34,30,28,65,50,36,30.32,30.26,30.20,10,10,7,22,15,29,0.00,1,,158
2012-11-18,62,53,44,28,26,19,49,36,19,30.22,30.12,30.07,10,10,10,23,18,31,0.00,2,,159
2012-11-19,60,48,37,36,33,28,81,50,31,30.10,30.04,30.00,10,10,5,18,12,24,0.00,2,,161
2012-11-20,55,42,28,37,30,23,86,65,36,30.16,30.11,30.06,10,7,0,14,2,,0.00,1,Fog,211
2012-11-21,71,58,44,37,32,25,58,41,17,30.06,29.91,29.74,10,10,10,23,14,28,0.00,0,,179
2012-11-22,62,46,28,39,32,16,70,54,32,30.01,29.77,29.65,10,10,4,32,19,43,0.00,3,,242
2012-11-23,28,22,17,16,11,9,73,58,47,30.34,30.22,30.01,10,9,2,34,24,41,0.00,8,Snow,303
2012-11-24,30,20,10,16,9,3,79,59,40,30.31,30.07,29.78,10,10,10,16,5,20,0.00,3,,166
2012-11-25,35,30,26,21,18,10,69,58,44,30.13,29.95,29.79,10,10,10,22,9,21,0.00,5,,289
2012-11-26,26,19,12,7,3,0,67,49,34,30.37,30.31,30.14,10,10,7,20,12,24,0.00,1,,294
2012-11-27,39,27,15,18,11,3,74,54,33,30.34,30.20,30.09,10,10,7,22,10,29,0.00,1,,206
2012-11-28,39,29,19,19,19,12,80,61,42,30.33,30.22,30.08,10,10,7,12,6,16,0.00,2,,219
2012-11-29,46,35,24,23,21,18,74,56,40,30.06,30.02,29.98,10,10,7,13,7,17,0.00,0,,89
2012-11-30,39,36,33,34,28,23,87,71,60,30.13,30.07,30.01,10,5,2,16,10,23,0.00,5,,95